Location: La Oliva
(42.2466°N, 2.9955°E)
Time: 10:48:52
(UTC+00:00)

BREEZE M DEB (TANK) - Pass Details

Date: 22 April 2021
Orbit: 342 x 13618 km, 49.6° (Epoch: 10 May)

Event Time Altitude Azimuth Distance (km) Brightness Sun altitude
Rises 19:48:43 0° 207° (SSW) 2,258 5.9 -12.8°
Reaches altitude 10° 19:50:14 10° 196° (SSW) 1,602 5.0 -13.1°
Maximum altitude 19:53:09 35° 126° (SE) 1,116 3.8 -13.5°
Drops below altitude 10° 20:00:06 10° 63° (ENE) 3,861 6.8 -14.6°
Sets 20:06:10 0° 58° (ENE) 6,445 8.0 -15.6°
